Regional Weather Roundup
Issued by NWS Cleveland, OH

Home | Current Version | Previous Version | Graphics & Text | Print | Product List | Glossary On
Versions: 1 2 3 4 5 6 7 8 9 10 11 12 13 14 15 16 17 18 19 20 21 22 23 24 25 26 27 28 29 30 31 32 33 34 35 36 37 38 39 40 41 42 43 44 45 46 47 48 49 50
568
ASUS41 KCLE 212200
RWRCLE
OHIO REGIONAL WEATHER ROUNDUP
NATIONAL WEATHER SERVICE WILMINGTON, OH
600 PM EDT MON AUG 21 2017

NOTE: "FAIR" INDICATES FEW OR NO CLOUDS BELOW 12,000 FEET WITH NO
SIGNIFICANT WEATHER AND/OR OBSTRUCTIONS TO VISIBILITY.

OHZ001>008-015>018-024>027-034-035-043-044-212300-
   NORTHWEST OHIO

CITY           SKY/WX    TMP DP  RH WIND       PRES   REMARKS
DEFIANCE       FAIR      85  69  58 SW6       30.03F
FINDLAY        FAIR      84  72  67 S14       30.05F
TOLEDO EXPRESS FAIR      86  71  60 SW9       30.02F HX  91
TOLEDO EXEC    FAIR      85  74  69 S17       30.03F HX  92
LIMA           FAIR      83  73  72 S9        30.08F
$$

OHZ009>014-019>023-028>033-038-089-212300-
   NORTHEAST OHIO

CITY           SKY/WX    TMP DP  RH WIND       PRES   REMARKS
CLE-HOPKINS    LGT RAIN  86  68  54 S8        30.08S
CLE-LAKEFRONT  LGT RAIN  82  69  64 E7        30.04F
CUY CO. ARPT   MOSUNNY   79  68  69 S7        30.08S
LORAIN-ELYRIA  FAIR      80  68  66 W7G17     30.08S
ASHTABULA      FAIR      84  66  54 S3        30.09F
AKRON-CANTON   PTSUNNY   85  70  60 SW9       30.10F
WOOSTER        NOT AVBL
MANSFIELD      FAIR      84  70  62 S12       30.10F
YOUNGSTOWN     PTSUNNY   81  68  64 SE5       30.10F
$$

OHZ042-051>053-060>062-070>072-077>081-212300-
  SOUTHWEST OHIO

CITY           SKY/WX    TMP DP  RH WIND       PRES   REMARKS
CINC-COVINGTON CLOUDY    87  70  56 SW9       30.11S HX  92
CINC-LUNKEN    FAIR      87  71  58 S9        30.09S HX  93
HAMILTON       FAIR      87  69  54 SW6       30.11R HX  91
DAYTON         NOT AVBL
WRIGHT-PAT AFB DRIZZLE   87  64  46 SW10      30.09S
DAYTON GENERAL PTSUNNY   86  65  49 SW7       30.11R
WILMINGTON     FAIR      84  73  69 S6        30.11S HX  90
$$

OHZ036-037-039>041-045>050-054>059-063>069-073>076-082>088-212300-
  CENTRAL AND SOUTHEAST OHIO

CITY           SKY/WX    TMP DP  RH WIND       PRES   REMARKS
COLUMBUS       CLOUDY    88  69  53 SW10      30.09F HX  92
OSU AIRPORT    FAIR      86  70  58 SW9       30.09F HX  90
BOLTON FIELD   MOSUNNY   84  72  65 SW7G16    30.11S
RICKENBACK AFB NOT AVBL
NEWARK         FAIR      86  69  56 SW9       30.10F HX  90
MARION         TSTM      80  69  69 SW3       30.08F
LANCASTER      FAIR      88  72  58 S8        30.11F HX  94
ZANESVILLE     FAIR      87  72  60 S9        30.11F HX  93
NEW PHILLY     FAIR      84  73  69 VRB3      30.11F HX  90
$$




USA.gov is the U.S. government's official web portal to all federal, state and local government web resources and services.